This is the latest recevied weather packets stored in our database for station/object N8VDS-10. If no packets are shown the sender has not sent any weather packets the latest 10 day(s).
| Time | Temp. | Humidity | Pressure | Rain* | Wind** | Luminosity | Snow |
|---|---|---|---|---|---|---|---|
| 1778073222 | 6.67° C | 58% | 1015.9 hPa | 0 mm | - | 315 W/m² | - |
| 1778072919 | 6.11° C | 59% | 1016.1 hPa | 0 mm | - | 299 W/m² | - |
| 1778072615 | 5.56° C | 60% | 1015.7 hPa | 0 mm | - | 295 W/m² | - |
| 1778072313 | 5.56° C | 61% | 1015.6 hPa | 0 mm | - | 247 W/m² | - |
| 1778072012 | 5.56° C | 62% | 1015.7 hPa | 0 mm | - | 264 W/m² | - |
| 1778071710 | 5.56° C | 64% | 1015.6 hPa | 0 mm | - | 242 W/m² | - |
| 1778071406 | 5.56° C | 65% | 1015.7 hPa | 0 mm | - | 216 W/m² | - |
| 1778071104 | 5° C | 68% | 1015.6 hPa | 0 mm | - | 214 W/m² | - |
| 1778070802 | 5° C | 69% | 1015.5 hPa | 0 mm | - | 199 W/m² | - |
| 1778070499 | 5° C | 69% | 1015.5 hPa | 0 mm | - | 192 W/m² | - |
| 1778070196 | 5° C | 67% | 1015.7 hPa | 0 mm | - | 177 W/m² | - |
| 1778069894 | 5° C | 69% | 1015.3 hPa | 0 mm | - | 143 W/m² | - |
| 1778069591 | 5° C | 67% | 1015.2 hPa | 0 mm | - | 172 W/m² | - |
| 1778069288 | 3.89° C | 70% | 1015.1 hPa | 0 mm | - | 107 W/m² | - |
| 1778068986 | 3.89° C | 70% | 1015 hPa | 0 mm | - | 107 W/m² | - |
| 1778068683 | 3.89° C | 70% | 1014.8 hPa | 0 mm | - | 66 W/m² | - |
| 1778068381 | 3.89° C | 73% | 1014.7 hPa | 0 mm | - | 64 W/m² | - |
| 1778068079 | 3.89° C | 75% | 1015 hPa | 0 mm | - | 76 W/m² | - |
| 1778067777 | 4.44° C | 75% | 1014.9 hPa | 0 mm | - | 81 W/m² | - |
| 1778067475 | 4.44° C | 75% | 1014.6 hPa | 0 mm | - | 59 W/m² | - |
| 1778067172 | 4.44° C | 75% | 1014.5 hPa | 0 mm | - | 61 W/m² | - |
| 1778066868 | 4.44° C | 76% | 1014.6 hPa | 0 mm | - | 65 W/m² | - |
| 1778066566 | 4.44° C | 76% | 1014.5 hPa | 0 mm | - | 51 W/m² | - |
| 1778066263 | 3.89° C | 76% | 1014.5 hPa | 0 mm | - | 42 W/m² | - |
| 1778065961 | 3.89° C | 76% | 1014.3 hPa | 0 mm | - | 36 W/m² | - |
* Rain latest hour (hover to see other rain measurements)
** Current wind speed in m/s (hover to see current wind gust speed)